Date String (YYYY-MM-DD hh:mm:ss) UTC,Instrument flags,Ambient pressure (hPa),Sample flow (lpm),Bypass flow (lpm),Sample temperature (°C),Ambient temperature (°C),ASC tube jacket temperature (°C),LED temperature (°C),Box temperature (°C),Sample RH (%),Span deviation,Mass concentration (μg/m³),Mass concentration (μg/m³),Mass concentration (μg/m³)
DateTimeUTC,F1_M11,P_M11,Q1_M11,Q2_M11,T1_M11,T2_M11,T3_M11,T4_M11,T5_M11,U1_M11,ZSPAN_M11,X0_M11,X2_M11,X1_M11
2023-05-17 07:00:00,,0833.1,4.99,0.00,29.4,27.8,00.0,37.8,31.0,21.6,0000.0,0013.54,0005.02,0003.62
2023-05-17 07:01:00,,0833.1,5.00,0.00,29.4,27.7,00.0,37.8,31.0,21.2,0000.0,0013.53,0004.98,0003.61
2023-05-17 07:02:00,,0833.1,5.01,0.00,29.4,27.7,00.0,37.8,31.0,20.9,0000.0,0013.64,0004.93,0003.58
2023-05-17 07:03:00,,0833.1,5.00,0.00,29.4,27.7,00.0,37.8,31.0,20.8,0000.0,0013.73,0004.89,0003.54
2023-05-17 07:04:00,,0833.2,5.00,0.00,29.4,27.7,00.0,37.8,31.0,20.7,0000.0,0013.92,0004.88,0003.52
2023-05-17 07:05:00,,0833.1,5.00,0.00,29.4,27.7,00.0,37.8,31.0,20.7,0000.0,0013.35,0004.88,0003.50
2023-05-17 07:06:00,,0833.1,5.00,0.00,29.4,27.7,00.0,37.8,31.0,20.9,0000.0,0012.65,0004.84,0003.47
2023-05-17 07:07:00,,0833.0,5.00,0.00,29.4,27.7,00.0,37.8,31.0,21.0,0000.0,0012.38,0004.81,0003.44
2023-05-17 07:08:00,,0833.1,5.00,0.00,29.4,27.7,00.0,37.8,30.9,21.0,0000.0,0011.93,0004.68,0003.41
2023-05-17 07:09:00,,0833.2,5.00,0.00,29.4,27.7,00.0,37.8,30.9,20.8,0000.0,0011.18,0004.55,0003.39
2023-05-17 07:10:00,,0833.4,5.01,0.00,29.4,27.7,00.0,37.8,30.9,20.8,0000.0,0010.50,0004.47,0003.37
2023-05-17 07:11:00,,0833.3,5.00,0.00,29.4,27.7,00.0,37.8,30.9,20.9,0000.0,0010.27,0004.38,0003.35
2023-05-17 07:12:00,,0833.0,5.01,0.00,29.4,27.7,00.0,37.8,30.9,20.8,0000.0,0010.03,0004.39,0003.35
2023-05-17 07:13:00,,0833.0,4.99,0.00,29.4,27.7,00.0,37.8,30.9,20.9,0000.0,0009.72,0004.35,0003.35
2023-05-17 07:14:00,,0833.1,4.98,0.00,29.4,27.7,00.0,37.8,30.9,20.9,0000.0,0009.71,0004.38,0003.36
2023-05-17 07:15:00,,0833.3,5.00,0.00,29.4,27.7,00.0,37.8,30.9,20.8,0000.0,0009.63,0004.43,0003.37
2023-05-17 07:16:00,,0833.3,5.00,0.00,29.4,27.7,00.0,37.8,30.9,20.8,0000.0,0009.57,0004.44,0003.39
2023-05-17 07:17:00,,0833.0,5.00,0.00,29.4,27.7,00.0,37.8,30.9,20.7,0000.0,0009.59,0004.45,0003.41
2023-05-17 07:18:00,,0832.9,5.00,0.00,29.4,27.7,00.0,37.8,30.9,20.6,0000.0,0009.51,0004.45,0003.42
2023-05-17 07:19:00,,0832.9,5.00,0.00,29.3,27.7,00.0,37.8,30.9,20.5,0000.0,0009.49,0004.45,0003.43
2023-05-17 07:20:00,,0833.0,5.00,0.00,29.3,27.7,00.0,37.7,30.9,20.4,0000.0,0009.53,0004.47,0003.43
2023-05-17 07:21:00,,0832.9,5.00,0.00,29.3,27.7,00.0,37.7,30.9,20.3,0000.0,0009.38,0004.42,0003.40
2023-05-17 07:22:00,,0832.9,5.00,0.00,29.3,27.6,00.0,37.7,30.9,20.3,0000.0,0010.36,0004.43,0003.40
2023-05-17 07:23:00,,0833.2,5.00,0.00,29.3,27.6,00.0,37.7,30.8,20.2,0000.0,0010.74,0004.40,0003.39
2023-05-17 07:24:00,,0833.4,4.99,0.00,29.3,27.6,00.0,37.7,30.8,20.3,0000.0,0010.64,0004.40,0003.38
2023-05-17 07:25:00,,0833.0,5.00,0.00,29.3,27.6,00.0,37.7,30.8,20.2,0000.0,0010.50,0004.38,0003.38
2023-05-17 07:26:00,,0832.8,5.00,0.00,29.3,27.6,00.0,37.7,30.8,20.3,0000.0,0010.41,0004.36,0003.37
2023-05-17 07:27:00,,0832.7,5.01,0.00,29.3,27.6,00.0,37.7,30.8,20.1,0000.0,0010.26,0004.34,0003.35
2023-05-17 07:28:00,,0832.8,5.00,0.00,29.3,27.6,00.0,37.7,30.8,19.8,0000.0,0010.16,0004.30,0003.32
2023-05-17 07:29:00,,0832.8,5.00,0.00,29.3,27.5,00.0,37.7,30.8,19.7,0000.0,0010.13,0004.26,0003.29
2023-05-17 07:30:00,,0832.7,5.00,0.00,29.3,27.5,00.0,37.7,30.8,19.8,0000.0,0010.20,0004.27,0003.27
2023-05-17 07:31:00,,0832.7,4.99,0.00,29.3,27.5,00.0,37.7,30.8,19.7,0000.0,0010.24,0004.27,0003.25
2023-05-17 07:32:00,,0832.7,4.99,0.00,29.2,27.5,00.0,37.7,30.8,19.8,0000.0,0010.40,0004.31,0003.26
2023-05-17 07:33:00,,0832.7,5.00,0.00,29.2,27.5,00.0,37.7,30.8,20.0,0000.0,0009.65,0004.31,0003.25
2023-05-17 07:34:00,,0832.7,5.00,0.00,29.2,27.5,00.0,37.7,30.8,19.9,0000.0,0008.92,0004.29,0003.24
2023-05-17 07:35:00,,0832.7,5.00,0.00,29.2,27.5,00.0,37.7,30.8,19.7,0000.0,0008.71,0004.27,0003.24
2023-05-17 07:36:00,,0832.7,5.00,0.00,29.2,27.5,00.0,37.6,30.8,19.6,0000.0,0008.72,0004.24,0003.23
2023-05-17 07:37:00,,0832.7,5.00,0.00,29.2,27.5,00.0,37.6,30.8,19.4,0000.0,0008.57,0004.17,0003.20
2023-05-17 07:38:00,,0832.7,5.00,0.00,29.2,27.5,00.0,37.6,30.7,19.4,0000.0,0008.94,0004.12,0003.18
2023-05-17 07:39:00,,0832.7,5.00,0.00,29.2,27.5,00.0,37.6,30.7,19.3,0000.0,0008.98,0004.12,0003.18
2023-05-17 07:40:00,,0832.7,5.00,0.00,29.2,27.4,00.0,37.6,30.7,19.1,0000.0,0008.88,0004.09,0003.17
2023-05-17 07:41:00,,0832.7,5.00,0.00,29.2,27.4,00.0,37.6,30.7,19.0,0000.0,0008.77,0004.04,0003.16
2023-05-17 07:42:00,,0832.7,5.00,0.00,29.2,27.4,00.0,37.6,30.7,19.0,0000.0,0008.70,0004.01,0003.14
2023-05-17 07:43:00,,0832.6,5.01,0.00,29.2,27.4,00.0,37.6,30.7,19.0,0000.0,0008.54,0003.95,0003.12
2023-05-17 07:44:00,,0832.6,5.00,0.00,29.2,27.4,00.0,37.6,30.7,19.0,0000.0,0008.16,0003.90,0003.08
2023-05-17 07:45:00,,0832.7,5.00,0.00,29.1,27.4,00.0,37.6,30.7,19.0,0000.0,0007.98,0003.82,0003.02
2023-05-17 07:46:00,,0832.6,5.00,0.00,29.1,27.4,00.0,37.6,30.7,18.9,0000.0,0008.02,0003.83,0003.00
2023-05-17 07:47:00,,0832.6,4.99,0.00,29.1,27.4,00.0,37.6,30.7,18.8,0000.0,0007.92,0003.80,0002.96
2023-05-17 07:48:00,,0832.6,4.99,0.00,29.1,27.4,00.0,37.6,30.6,18.8,0000.0,0007.97,0003.81,0002.95
2023-05-17 07:49:00,,0832.6,4.99,0.00,29.1,27.4,00.0,37.5,30.6,18.8,0000.0,0007.38,0003.82,0002.93
2023-05-17 07:50:00,,0832.6,5.00,0.00,29.1,27.4,00.0,37.5,30.6,18.6,0000.0,0007.32,0003.78,0002.90
2023-05-17 07:51:00,,0832.6,5.01,0.00,29.1,27.3,00.0,37.5,30.6,18.5,0000.0,0007.37,0003.79,0002.88
2023-05-17 07:52:00,,0832.6,5.00,0.00,29.1,27.3,00.0,37.5,30.6,18.6,0000.0,0007.36,0003.77,0002.87
2023-05-17 07:53:00,,0832.6,5.00,0.00,29.1,27.3,00.0,37.5,30.6,18.6,0000.0,0007.41,0003.74,0002.84
2023-05-17 07:54:00,,0832.6,5.00,0.00,29.1,27.3,00.0,37.5,30.6,18.6,0000.0,0007.67,0003.77,0002.84
2023-05-17 07:55:00,,0832.6,5.00,0.00,29.0,27.3,00.0,37.5,30.6,18.6,0000.0,0007.66,0003.76,0002.83
2023-05-17 07:56:00,,0832.5,5.00,0.00,29.0,27.3,00.0,37.5,30.6,18.5,0000.0,0007.70,0003.76,0002.83
2023-05-17 07:57:00,,0832.6,5.00,0.00,29.0,27.3,00.0,37.5,30.5,18.5,0000.0,0007.69,0003.74,0002.82
2023-05-17 07:58:00,,0832.5,5.00,0.00,29.0,27.3,00.0,37.5,30.5,18.5,0000.0,0007.84,0003.72,0002.80
2023-05-17 07:59:00,,0832.5,4.99,0.00,29.0,27.3,00.0,37.5,30.6,18.6,0000.0,0007.91,0003.74,0002.79
